NWS Regional Weather Roundup

514
ASUS41 KBGM 200910
RWRBGM

REGIONAL WEATHER ROUNDUP
NATIONAL WEATHER SERVICE BINGHAMTON NY
400 AM EST MON JAN 20 2020

Note: "fair" indicates few or no clouds below 12,000 feet with no
significant weather and/or obstructions to visibility.

* = Station(s) that does not report precipitation, such as rain,
snow, etc, also no thunder or fog.

NYZ009-015>018-022>025-036-037-044>046-055>057-062-201000
...Central New York...

CITY           SKY/WX    TMP DP  RH WIND       PRES   REMARKS
Binghamton     LGT SNOW  13   8  81 NW13G22   30.08R WCI  -2
Cortland       LGT SNOW  16  14  93 NW5       30.15R WCI   9
Dansville      FLURRIES  13  10  88 NW5       30.27R WCI   5
Elmira         FLURRIES  19  10  68 N9        30.19R WCI   8
Endicott       MOSUNNY   16   7  67 N5        30.17R WCI   9
Ithaca         FLURRIES  15   9  76 NW12      30.18R WCI   2
Hamilton       CLOUDY    10   5  79 N14G20    30.15R WCI  -5
Monticello     FLURRIES  13   6  74 NW16G23   30.03R WCI  -3
Norwich        FLURRIES  12   7  79 N10       30.15R WCI  -1
Oneonta        FLURRIES   9   3  78 N7        30.06R WCI  -3
Penn Yan       FLURRIES  16   9  74 N10G17    30.21R WCI   4
Rome           FAIR       8   3  80 NW9       30.23R WCI  -5
Seneca Falls   FLURRIES  18  10  73 NW10      30.26R WCI   6
Sidney         FLURRIES  12   7  79 N7        30.14R WCI   2
Skaneateles    LGT SNOW  16  12  86 VRB5      30.19R WCI   9
Syracuse       FLURRIES  13   3  64 N13       30.25R WCI  -2
$$

PAZ038>040-043-044-047-048-072-201000
...Northeast Pennsylvania...

CITY           SKY/WX    TMP DP  RH WIND       PRES   REMARKS
Hazleton       FLURRIES  18   9  68 NW15G21   30.08R WCI   3
Scranton       FLURRIES  20  10  65 N8G20     30.11R WCI  10
Towanda        PTSUNNY   19  10  68 N6        30.20R WCI  11
$$
&&
KEY
WCI = Wind Chill Index
VSB = Visibility
HX  = Heat Index
$$

NWS BGM Office Regional Weather Roundup